Year,Month,Day,Hour,Minute,Value (Times are PST for temperature in C)
2009,03,20,11,55,4.80
2009,03,20,11,56,4.80
2009,03,20,11,57,4.80
2009,03,20,11,58,4.80
2009,03,20,11,59,4.90
2009,03,20,12,00,4.90
2009,03,20,12,01,5.00
2009,03,20,12,02,5.00
2009,03,20,12,03,5.10
2009,03,20,12,04,5.10
2009,03,20,12,05,5.10
2009,03,20,12,06,5.10
2009,03,20,12,07,5.10
2009,03,20,12,08,5.10
2009,03,20,12,09,5.10
2009,03,20,12,10,5.10
2009,03,20,12,11,5.10
2009,03,20,12,12,5.10
2009,03,20,12,28,5.40
2009,03,20,12,29,5.40
2009,03,20,12,30,5.40
2009,03,20,12,31,5.50
2009,03,20,12,32,5.60
2009,03,20,12,33,5.60
2009,03,20,12,34,5.70
2009,03,20,12,35,5.80
2009,03,20,12,36,5.80
2009,03,20,12,37,5.90
2009,03,20,12,38,5.90
2009,03,20,12,39,5.90
2009,03,20,12,40,6.00
2009,03,20,12,41,6.10
2009,03,20,12,42,6.20
2009,03,20,12,43,6.30
2009,03,20,12,44,6.40
2009,03,20,12,45,6.40
2009,03,20,12,46,6.60
2009,03,20,12,47,6.70
2009,03,20,12,48,6.70
2009,03,20,12,49,6.80
2009,03,20,12,50,6.80
2009,03,20,12,51,6.80
2009,03,20,12,52,6.80
2009,03,20,12,53,6.90
2009,03,20,12,54,6.90
2009,03,20,12,55,6.90
2009,03,20,12,56,6.90
2009,03,20,12,57,7.00
2009,03,20,12,58,7.10
2009,03,20,12,59,7.10
2009,03,20,13,00,7.20
2009,03,20,13,01,7.20
2009,03,20,13,02,7.30
2009,03,20,13,03,7.30
2009,03,20,13,04,7.30
2009,03,20,13,05,7.30
2009,03,20,13,06,7.30
2009,03,20,13,07,7.40
2009,03,20,13,08,7.40
2009,03,20,13,09,7.50
2009,03,20,13,10,7.50
2009,03,20,13,11,7.50
2009,03,20,13,12,7.50
2009,03,20,13,13,7.50
2009,03,20,13,14,7.50
2009,03,20,13,15,7.50
2009,03,20,13,16,7.50
2009,03,20,13,17,7.40
2009,03,20,13,18,7.40
2009,03,20,13,19,7.50
2009,03,20,13,20,7.50
2009,03,20,13,21,7.50
2009,03,20,13,22,7.50
2009,03,20,13,23,7.40
2009,03,20,13,24,7.40
2009,03,20,13,25,7.40
2009,03,20,13,26,7.40
2009,03,20,13,27,7.30
2009,03,20,13,28,7.30
2009,03,20,13,29,7.30
2009,03,20,13,30,7.30
2009,03,20,13,31,7.30
2009,03,20,13,32,7.30
2009,03,20,13,33,7.30
2009,03,20,13,34,7.30
2009,03,20,13,35,7.30
2009,03,20,13,36,7.30
2009,03,20,13,37,7.30
2009,03,20,13,38,7.30
2009,03,20,13,39,7.30
2009,03,20,13,40,7.30
2009,03,20,13,41,7.20
2009,03,20,13,42,7.20
2009,03,20,13,43,7.20
2009,03,20,13,44,7.20
2009,03,20,13,45,7.20
2009,03,20,13,46,7.20
2009,03,20,13,47,7.20
2009,03,20,13,48,7.20
2009,03,20,13,49,7.20
2009,03,20,13,50,7.20
2009,03,20,13,51,7.20
2009,03,20,13,52,7.20
2009,03,20,15,16,5.70
2009,03,20,15,17,5.70
2009,03,20,15,18,5.70
2009,03,20,15,19,5.70
2009,03,20,15,20,5.70
2009,03,20,15,21,5.70
2009,03,20,15,22,5.70
2009,03,20,15,23,5.70
2009,03,20,15,24,5.70
2009,03,20,15,25,5.70
2009,03,20,15,26,5.80
2009,03,20,15,27,5.80
2009,03,20,15,28,5.80
2009,03,20,15,29,5.90
2009,03,20,15,30,5.90
2009,03,20,15,31,5.80
2009,03,20,15,32,5.80
2009,03,20,15,33,5.80
2009,03,20,15,34,5.80
2009,03,20,15,35,5.80
2009,03,20,15,36,5.80
2009,03,20,15,37,5.80
2009,03,20,15,38,5.70
2009,03,20,15,39,5.70
2009,03,20,15,40,5.70
2009,03,20,15,41,5.70
2009,03,20,15,42,5.60
2009,03,20,15,43,5.60
2009,03,20,15,44,5.50
2009,03,20,15,45,5.50
2009,03,20,15,46,5.30
2009,03,20,15,47,5.30
2009,03,20,15,48,5.20
2009,03,20,15,49,5.10
2009,03,20,15,50,5.10
2009,03,20,15,51,5.10
2009,03,20,15,52,5.00
2009,03,20,15,53,5.00
2009,03,20,15,54,4.90
2009,03,20,15,55,4.80
2009,03,20,15,56,4.80
2009,03,20,15,57,4.80
2009,03,20,15,58,4.90
2009,03,20,15,59,4.90
2009,03,20,16,00,4.90
2009,03,20,16,01,4.90
2009,03,20,16,02,4.90
2009,03,20,16,03,4.90
2009,03,20,16,04,4.90
2009,03,20,16,05,4.90
2009,03,20,16,06,4.90
2009,03,20,16,07,4.90
2009,03,20,16,08,4.90
2009,03,20,16,09,4.90
2009,03,20,16,10,4.80
2009,03,20,16,11,4.80
2009,03,20,16,12,4.80
2009,03,20,16,13,4.80
2009,03,20,16,14,4.80
2009,03,20,16,15,4.80
2009,03,20,16,16,4.80
2009,03,20,16,17,4.80
2009,03,20,16,18,4.80
2009,03,20,16,19,4.80
2009,03,20,16,20,4.80
2009,03,20,16,21,4.80
2009,03,20,16,22,4.80
2009,03,20,16,23,4.70
2009,03,20,16,24,4.70
2009,03,20,16,25,4.60
2009,03,20,16,26,4.60
2009,03,20,16,27,4.60
2009,03,20,16,28,4.50
2009,03,20,16,29,4.40
2009,03,20,16,30,4.30
2009,03,20,16,31,4.30
2009,03,20,16,32,4.30
2009,03,20,16,33,4.30
2009,03,20,16,34,4.20
2009,03,20,16,35,4.20
2009,03,20,16,36,4.30
2009,03,20,16,37,4.30
2009,03,20,16,38,4.30
2009,03,20,16,39,4.30
2009,03,20,16,40,4.30
2009,03,20,16,41,4.30
2009,03,20,16,42,4.30
2009,03,20,16,43,4.30
2009,03,20,16,44,4.30
2009,03,20,16,45,4.30
2009,03,20,16,46,4.30
2009,03,20,16,47,4.30
2009,03,20,16,48,4.30
2009,03,20,16,49,4.30
2009,03,20,16,50,4.30
2009,03,20,16,51,4.30
2009,03,20,16,52,4.30
2009,03,20,16,53,4.40
2009,03,20,16,54,4.40
2009,03,20,16,55,4.50
2009,03,20,16,56,4.50
2009,03,20,16,57,4.60
2009,03,20,16,58,4.60
2009,03,20,16,59,4.60
2009,03,20,17,00,4.70
2009,03,20,17,01,4.70
2009,03,20,17,02,4.80
2009,03,20,17,03,4.90
2009,03,20,17,04,5.00
2009,03,20,17,05,5.00
2009,03,20,17,06,5.10
2009,03,20,17,07,5.20
2009,03,20,17,08,5.20
2009,03,20,17,09,5.20
2009,03,20,17,10,5.10
2009,03,20,17,11,5.10
2009,03,20,17,12,5.10
2009,03,20,17,13,5.10
2009,03,20,17,14,5.10
2009,03,20,17,15,5.00
2009,03,20,17,16,5.00
2009,03,20,17,17,5.00
2009,03,20,17,18,5.00
2009,03,20,17,19,5.00
2009,03,20,17,20,4.90
2009,03,20,17,21,4.90
2009,03,20,17,22,4.80
2009,03,20,17,23,4.80
2009,03,20,17,24,4.80
2009,03,20,17,25,4.70
2009,03,20,17,26,4.70
2009,03,20,17,27,4.70
2009,03,20,17,28,4.70
2009,03,20,17,29,4.60
2009,03,20,17,30,4.60
2009,03,20,17,31,4.60
2009,03,20,17,32,4.60
2009,03,20,17,33,4.60
2009,03,20,17,34,4.60
2009,03,20,17,35,4.70
2009,03,20,17,36,4.70
2009,03,20,17,37,4.70
2009,03,20,17,38,4.70
2009,03,20,17,39,4.70
2009,03,20,17,40,4.70
2009,03,20,17,41,4.70
2009,03,20,17,42,4.70
2009,03,20,17,43,4.70
2009,03,20,17,44,4.70
2009,03,20,17,45,4.70
